Weather History for Worcester, MA

Change the Weather History Date:

Sunday, August 17, 2014

  Actual Average Record
Temperature  
Mean Temperature 66 °F 69 °F  
Max Temperature 74 °F 77 °F 97 °F (1944)
Min Temperature 57 °F 61 °F 44 °F (1929)
Degree Days  
Heating Degree Days 0 1  
Month to date heating degree days 10 8  
Since 1 June heating degree days 55 105  
Since 1 July heating degree days 10 22  
Cooling Degree Days 1 5  
Month to date cooling degree days 56 91  
Year to date cooling degree days 322 372  
Since 1 June cooling degree days 314 350  
Growing Degree Days 15 (Base 50)    
Moisture  
Dew Point 56 °F    
Average Humidity 73    
Maximum Humidity 93    
Minimum Humidity 53    
Precipitation  
Precipitation 0.01 in 0.12 in 1.60 in (1939)
Month to date precipitation 2.18 2.18  
Year to date precipitation 31.21 29.83  
Sea Level Pressure  
Sea Level Pressure 29.85 in    
Wind  
Wind Speed 11 mph (West)    
Max Wind Speed 21 mph    
Max Gust Speed 26 mph    
Visibility 10 miles    
Events Rain    
T = Trace of Precipitation, MM = Missing Value Source: NWS Daily Summary

Daily Weather History Graph

Daily Weather History Graph

Search for Another Location

Airport:

Trip Planner

Search our weather history database for the weather conditions in past years. The results will help you decide how hot, cold, wet, or windy it might be!

Date:

Astronomy

Aug. 17, 2014 Rise Set
Actual Time 5:56 AM EDT 7:45 PM EDT
Civil Twilight 5:26 AM EDT 8:15 PM EDT
Nautical Twilight 4:50 AM EDT 8:51 PM EDT
Astronomical Twilight 4:10 AM EDT 9:31 PM EDT
Moon No Moon Rise 1:48 PM EDT (8/17)
Length of Visible Light 14h 48m
Length of Day
13h 48m
Waning Gibbous, 48% of the Moon is Illuminated
Aug 17
Waning Gibbous
Aug 25
New
Sep 2
First Quarter
Sep 8
Full
Sep 15
Last Quarter

Hourly Weather History & Observations

Time (EDT) Temp. Dew Point Humidity Pressure Visibility Wind Dir Wind Speed Gust Speed Precip Events Conditions
12:54 AM 62.1 °F 55.9 °F 80% 29.92 in 10.0 mi SW 8.1 mph - N/A   Clear
1:54 AM 61.0 °F 55.9 °F 83% 29.90 in 10.0 mi SW 5.8 mph - N/A   Overcast
2:54 AM 61.0 °F 57.0 °F 87% 29.89 in 10.0 mi West 5.8 mph - 0.00 in Rain Light Rain
3:54 AM 60.1 °F 57.9 °F 93% 29.87 in 10.0 mi SW 8.1 mph - 0.01 in   Mostly Cloudy
4:54 AM 59.0 °F 55.9 °F 90% 29.86 in 10.0 mi WSW 6.9 mph - N/A   Clear
5:54 AM 57.9 °F 55.0 °F 90% 29.87 in 10.0 mi West 8.1 mph - N/A   Scattered Clouds
6:54 AM 59.0 °F 57.0 °F 93% 29.86 in 10.0 mi WSW 6.9 mph - N/A   Scattered Clouds
7:54 AM 64.0 °F 55.0 °F 73% 29.86 in 10.0 mi WSW 12.7 mph - N/A   Scattered Clouds
8:54 AM 66.9 °F 55.9 °F 68% 29.84 in 10.0 mi WSW 11.5 mph - N/A   Scattered Clouds
9:54 AM 69.1 °F 55.9 °F 63% 29.84 in 10.0 mi West 15.0 mph - N/A   Mostly Cloudy
10:54 AM 71.1 °F 57.9 °F 63% 29.83 in 10.0 mi West 13.8 mph 21.9 mph N/A   Clear
11:54 AM 72.0 °F 57.9 °F 61% 29.83 in 10.0 mi West 13.8 mph - N/A   Clear
12:54 PM 73.0 °F 57.9 °F 59% 29.82 in 10.0 mi NNW 15.0 mph - N/A   Mostly Cloudy
1:54 PM 71.1 °F 57.0 °F 61% 29.82 in 10.0 mi WNW 13.8 mph - N/A   Mostly Cloudy
2:54 PM 72.0 °F 55.9 °F 57% 29.81 in 10.0 mi WNW 13.8 mph - N/A   Partly Cloudy
3:54 PM 73.0 °F 55.9 °F 55% 29.81 in 10.0 mi WNW 12.7 mph - N/A   Scattered Clouds
4:54 PM 72.0 °F 57.0 °F 59% 29.82 in 10.0 mi WNW 11.5 mph - N/A   Overcast
5:54 PM 70.0 °F 55.9 °F 61% 29.82 in 10.0 mi NW 11.5 mph - N/A   Overcast
6:54 PM 69.1 °F 53.1 °F 57% 29.84 in 10.0 mi NNW 9.2 mph - N/A   Partly Cloudy
7:54 PM 66.0 °F 53.1 °F 63% 29.85 in 10.0 mi NW 5.8 mph - N/A   Clear
8:54 PM 63.0 °F 52.0 °F 67% 29.86 in 10.0 mi NW 10.4 mph - N/A   Partly Cloudy
9:54 PM 61.0 °F 53.1 °F 75% 29.87 in 10.0 mi WNW 9.2 mph - N/A   Clear
10:54 PM 61.0 °F 54.0 °F 78% 29.87 in 10.0 mi WNW 9.2 mph - N/A   Clear
11:54 PM 60.1 °F 53.1 °F 78% 29.86 in 10.0 mi WNW 12.7 mph - N/A   Clear